Content
SEND FEEDBACK

Daily
Averages
Monthly
Summary
Australia

KINGSTON, TASMANIA


Home > Oceania > Australia > Tasmania
Elevation: 170 feet     Latitude: 42 58S     Longitude: 147 19E

WEATHER
 
SELECT A DAY
Number of Records: 296,823;   Date Range: 7/1/96 - 7/20/14
 
SHARE

PRINT THIS DATA

[ ← Previous Day ]
WEATHER ALMANAC - FEBRUARY 13, 2013
[ Next Day → ]
[ °C ]   °F
Weather ElementAverageHighLow
Temperature61 °F68 °F (11:30 am)57 °F (2:00 am)
Dewpoint52 °F53.6 °F (12:00 am)50 °F (5:00 pm)
Humidity71.7 %88 % (12:00 am)47 % (2:00 pm)
Barometer30.26 in30.30 in (12:00 am)30.21 in (3:00 pm)
Wind Speed9.4 mph21.9 mph (5:00 pm)
Weather ElementAverage
Visibility7.8 mi
Wind DirectionSSE (163.9 °)

Weather ElementTotal
Precipitation---
Heating Degree Days2.5 (Base 65)
Growing Degree Days12.5 (Base 50)
Averaged from 63 records on February 13, 2013
WEATHER CONDITIONS BREAKOUT
WIND DIRECTION BREAKOUT
WEATHER BY HOUR - FEBRUARY 13, 2013
[ °C ]   °F
Local TimeTemperatureDewpointHumidityBarometerVisibilityWind DirectionWind SpeedGust SpeedPrecipitationEventsConditions
12:00 AM57.2 °F53.6 °F88 %30.30 in6.2 miSouth (190°)5.8 mphMostly Cloudy
12:30 AM57.2 °F53.6 °F88 %30.30 in6.2 miSSW (210°)4.6 mphLight Drizzle
1:00 AM57.2 °F53.6 °F88 %30.30 in6.2 miSouth (190°)2.3 mphMostly Cloudy
1:30 AM57.2 °F53.6 °F88 %30.30 in6.2 miCalmMostly Cloudy
2:00 AM57.0 °F53.0 °F83 %30.30 inCalm
2:00 AM57.2 °F53.6 °F88 %30.30 in6.2 miCalmMostly Cloudy
2:30 AM57.2 °F53.6 °F88 %30.27 in6.2 miSSW (200°)4.6 mphMostly Cloudy
3:00 AM57.2 °F53.6 °F88 %30.27 in6.2 miSSW (210°)3.5 mphMostly Cloudy
3:00 AM57.0 °F53.0 °F84 %30.29 in22.0 miSSW (210°)3.5 mphHaze
3:30 AM57.2 °F53.6 °F88 %30.27 in6.2 miCalmMostly Cloudy
4:00 AM57.2 °F53.6 °F88 %30.27 in6.2 miCalmMostly Cloudy
4:30 AM57.2 °F53.6 °F88 %30.27 in6.2 miCalmMostly Cloudy
4:44 AM57.2 °F53.6 °F88 %30.27 in6.2 miCalmMostly Cloudy
5:00 AM58.0 °F53.0 °F79 %30.28 inWest (260°)3.5 mph
5:00 AM57.2 °F53.6 °F88 %30.27 in6.2 miWest (260°)3.5 mphMostly Cloudy
5:30 AM57.2 °F53.6 °F88 %30.27 in6.2 miSouth (180°)3.5 mphMostly Cloudy
6:00 AM57.2 °F53.6 °F88 %30.27 in6.2 miCalmMostly Cloudy
6:00 AM58.0 °F53.0 °F80 %30.27 in25.0 miCalmPartly Cloudy
6:30 AM57.2 °F53.6 °F88 %30.27 in6.2 miSSE (150°)1.2 mphMostly Cloudy
7:00 AM57.2 °F53.6 °F88 %30.27 in6.2 miWSW (250°)2.3 mphLight Drizzle
7:30 AM59.0 °F53.6 °F82 %30.27 in6.2 miCalmMostly Cloudy
8:00 AM59.0 °F53.0 °F76 %30.29 inNNW (330°)3.5 mph
8:00 AM59.0 °F53.6 °F82 %30.27 in6.2 miNNW (330°)3.5 mphMostly Cloudy
8:30 AM60.8 °F51.8 °F72 %30.27 in6.2 miNNE (20°)4.6 mphMostly Cloudy
9:00 AM60.8 °F51.8 °F72 %30.27 in6.2 miWNW (290°)5.8 mphScattered Clouds
9:30 AM62.6 °F53.6 °F72 %30.27 in6.2 miNW (320°)5.8 mphMostly Cloudy
10:00 AM64.4 °F53.6 °F68 %30.27 in6.2 miWNW (290°)5.8 mphScattered Clouds
10:30 AM66.2 °F51.8 °F60 %30.27 in6.2 miWest (270°)2.3 mphScattered Clouds
11:00 AM66.0 °F53.0 °F52 %30.28 inSE (140°)8.1 mph
11:00 AM66.2 °F51.8 °F60 %30.27 in6.2 miSE (140°)8.1 mphMostly Cloudy
11:30 AM68.0 °F51.8 °F56 %30.27 in6.2 miSE (140°)10.4 mphMostly Cloudy
12:00 PM66.2 °F51.8 °F60 %30.27 in6.2 miSE (140°)11.5 mphMostly Cloudy
12:00 PM67.0 °F52.0 °F48 %30.27 in22.0 miSE (140°)11.5 mphHaze
12:30 PM68.0 °F51.8 °F56 %30.24 in6.2 miSSE (150°)13.8 mphMostly Cloudy
1:00 PM68.0 °F51.8 °F56 %30.24 in6.2 miSSE (150°)15.0 mphMostly Cloudy
1:30 PM66.2 °F51.8 °F60 %30.24 in6.2 miSSE (160°)17.3 mphMostly Cloudy
2:00 PM68.0 °F52.0 °F47 %30.25 inSSE (160°)17.3 mph
2:00 PM68.0 °F51.8 °F56 %30.24 in6.2 miSSE (160°)17.3 mphMostly Cloudy
2:30 PM66.2 °F53.6 °F64 %30.24 in6.2 miSouth (170°)17.3 mphMostly Cloudy
3:00 PM64.4 °F51.8 °F64 %30.21 in6.2 miSouth (170°)18.4 mphMostly Cloudy
3:00 PM65.0 °F52.0 °F52 %30.24 in22.0 miSouth (170°)18.4 mphHaze
3:30 PM66.2 °F51.8 °F60 %30.21 in6.2 miSouth (170°)19.6 mphMostly Cloudy
4:00 PM66.2 °F51.8 °F60 %30.21 in6.2 miSSE (160°)18.4 mphMostly Cloudy
4:30 PM64.4 °F51.8 °F64 %30.21 in6.2 miSouth (170°)19.6 mphMostly Cloudy
5:00 PM64.0 °F51.0 °F52 %30.24 inSouth (170°)21.9 mph
5:00 PM64.4 °F50.0 °F59 %30.21 in6.2 miSouth (170°)21.9 mphMostly Cloudy
5:30 PM62.6 °F51.8 °F68 %30.24 in6.2 miSouth (170°)19.6 mphMostly Cloudy
6:00 PM62.6 °F50.0 °F63 %30.24 in6.2 miSouth (180°)18.4 mphMostly Cloudy
6:00 PM63.0 °F50.0 °F54 %30.25 in19.0 miSouth (180°)18.4 mphHaze
6:30 PM60.8 °F50.0 °F68 %30.24 in6.2 miSouth (180°)18.4 mphMostly Cloudy
7:00 PM60.8 °F50.0 °F68 %30.24 in6.2 miSouth (170°)16.1 mphMostly Cloudy
7:30 PM59.0 °F50.0 °F72 %30.24 in6.2 miSouth (180°)17.3 mphMostly Cloudy
8:00 PM59.0 °F50.0 °F72 %30.24 in6.2 miSouth (170°)16.1 mphMostly Cloudy
8:30 PM59.0 °F50.0 °F72 %30.27 in6.2 miSouth (180°)13.8 mphMostly Cloudy
9:00 PM59.0 °F50.0 °F72 %30.27 in6.2 miSouth (180°)12.7 mphMostly Cloudy
9:00 PM59.0 °F50.0 °F63 %30.28 in16.0 miSouth (180°)12.7 mphHaze
9:30 PM59.0 °F50.0 °F72 %30.27 in6.2 miSouth (170°)10.4 mphMostly Cloudy
10:00 PM59.0 °F50.0 °F72 %30.27 in6.2 miSouth (180°)11.5 mphMostly Cloudy
10:30 PM59.0 °F50.0 °F72 %30.27 in6.2 miSouth (180°)11.5 mphMostly Cloudy
10:40 PM59.0 °F50.0 °F72 %30.27 in6.2 miSouth (180°)11.5 mphMostly Cloudy
11:00 PM58.0 °F50.0 °F66 %30.29 inSouth (170°)10.4 mph
11:00 PM59.0 °F50.0 °F72 %30.27 in6.2 miSouth (170°)10.4 mphMostly Cloudy
11:30 PM57.2 °F50.0 °F77 %30.27 in6.2 miSouth (190°)9.2 mphMostly Cloudy
Hourly data recorded from YMHB, located miles away from Kingston, Tasmania







STORIES FROM OUR PARTNERS